North Platte, NE

10:15 PM CDT on September 19, 2017 (GMT -0500)
North Platte Regional-Bird

Weather History for KLBF - June, 2013

Change the Weather History Date:

Tuesday, June 4, 2013

  Actual Average Record
Temperature  
Mean Temperature 67 °F 64 °F  
Max Temperature 75 °F 78 °F 94 °F (1881)
Min Temperature 58 °F 51 °F 36 °F (1950)
Degree Days  
Heating Degree Days 0 3  
Month to date heating degree days 23 15  
Since 1 June heating degree days 23 15  
Since 1 July heating degree days 6739 6650  
Cooling Degree Days 2 2  
Month to date cooling degree days 6 8  
Year to date cooling degree days 54 36  
Since 1 June cooling degree days 6 8  
Growing Degree Days 16 (Base 50)    
Moisture  
Dew Point 51 °F    
Average Humidity 63    
Maximum Humidity 84    
Minimum Humidity 41    
Precipitation  
Precipitation 0.01 in 0.13 in 3.07 in (1965)
Month to date precipitation 0.22 0.52  
Year to date precipitation 6.38 7.96  
Snow  
Snow 0.00 in 0.00 in 0.00 in ()
Month to date snowfall 0.0 0.0  
Since 1 June snowfall 0.0 0.0  
Since 1 July snowfall 30.2 28.5  
Snow Depth 0.00 in    
Sea Level Pressure  
Sea Level Pressure 29.90 in    
Wind  
Wind Speed 11 mph (NE)    
Max Wind Speed 24 mph    
Max Gust Speed 30 mph    
Visibility 10 miles    
Events Rain , Thunderstorm    
T = Trace of Precipitation, MM = Missing Value Source: NWS Daily Summary

Daily Weather History Graph

Daily Weather History Graph

Search for Another Location

Airport or City:

Trip Planner

Search our weather history database for the weather conditions in past years. The results will help you decide how hot, cold, wet, or windy it might be!

Date:

Astronomy

Jun. 04, 2013 Rise Set
Actual Time 6:11 AM CDT 9:11 PM CDT
Civil Twilight 5:38 AM CDT 9:44 PM CDT
Nautical Twilight 4:55 AM CDT 10:26 PM CDT
Astronomical Twilight 4:06 AM CDT 11:16 PM CDT
Moon 3:43 AM CDT (6/4) 5:40 PM CDT (6/4)
Length of Visible Light 16h 06m
Length of Day
15h 00m
Waning Crescent, 14% of the Moon is Illuminated
Jun 4
Waning Crescent
Jun 8
New
Jun 16
First Quarter
Jun 23
Full
Jun 29
Last Quarter

Hourly Weather History & Observations

Time (CDT) Temp. Dew Point Humidity Pressure Visibility Wind Dir Wind Speed Gust Speed Precip Events Conditions
12:53 AM 63.0 °F 60.1 °F 90% 29.71 in 10.0 mi Calm Calm - 0.00 in Rain , Thunderstorm Light Thunderstorms and Rain
1:46 AM 62.6 °F 59.0 °F 88% 29.83 in 10.0 mi NW 9.2 mph - 0.01 in   Clear
1:53 AM 64.0 °F 57.9 °F 80% 29.76 in 10.0 mi NNW 6.9 mph - 0.01 in   Clear
2:53 AM 62.1 °F 57.9 °F 86% 29.76 in 10.0 mi NNE 5.8 mph - N/A   Clear
3:53 AM 60.1 °F 55.9 °F 86% 29.79 in 10.0 mi North 4.6 mph - N/A   Clear
4:53 AM 60.1 °F 55.9 °F 86% 29.81 in 10.0 mi North 8.1 mph - N/A   Mostly Cloudy
5:53 AM 60.1 °F 55.0 °F 83% 29.84 in 10.0 mi North 12.7 mph - N/A   Overcast
6:53 AM 57.9 °F 51.1 °F 78% 29.86 in 10.0 mi NNE 13.8 mph 20.7 mph N/A   Mostly Cloudy
7:53 AM 60.1 °F 48.0 °F 64% 29.89 in 10.0 mi NNE 18.4 mph 27.6 mph N/A   Partly Cloudy
8:53 AM 61.0 °F 46.9 °F 60% 29.91 in 10.0 mi NNE 18.4 mph 28.8 mph N/A   Clear
9:53 AM 61.0 °F 46.9 °F 60% 29.94 in 10.0 mi NNE 13.8 mph 23.0 mph N/A   Overcast
10:53 AM 63.0 °F 46.9 °F 56% 29.95 in 10.0 mi NNE 12.7 mph - N/A   Overcast
11:53 AM 66.9 °F 46.9 °F 49% 29.95 in 10.0 mi NNE 13.8 mph - N/A   Clear
12:53 PM 70.0 °F 48.0 °F 46% 29.95 in 10.0 mi NE 12.7 mph 20.7 mph N/A   Clear
1:53 PM 71.1 °F 46.9 °F 42% 29.94 in 10.0 mi NE 9.2 mph 19.6 mph N/A   Mostly Cloudy
2:53 PM 73.0 °F 48.9 °F 42% 29.94 in 10.0 mi ENE 13.8 mph 19.6 mph N/A   Scattered Clouds
3:53 PM 73.9 °F 51.1 °F 45% 29.94 in 10.0 mi ENE 9.2 mph - N/A   Clear
4:53 PM 73.9 °F 48.9 °F 41% 29.94 in 10.0 mi ENE 12.7 mph 17.3 mph N/A   Scattered Clouds
5:53 PM 73.9 °F 50.0 °F 43% 29.92 in 10.0 mi ENE 12.7 mph - N/A   Partly Cloudy
6:53 PM 73.0 °F 48.9 °F 42% 29.93 in 10.0 mi East 10.4 mph - N/A   Clear
7:53 PM 71.1 °F 48.9 °F 45% 29.95 in 10.0 mi East 10.4 mph - N/A   Clear
8:53 PM 66.0 °F 50.0 °F 56% 29.98 in 10.0 mi ENE 9.2 mph - N/A   Clear
9:53 PM 64.0 °F 51.1 °F 63% 30.01 in 10.0 mi ENE 8.1 mph - N/A   Clear
10:53 PM 62.1 °F 51.1 °F 67% 30.06 in 10.0 mi NE 6.9 mph - N/A   Overcast
11:53 PM 62.1 °F 51.1 °F 67% 30.04 in 10.0 mi NNE 11.5 mph - N/A   Overcast